SHT21B EGJB-EGLL

Flight info

Callsign SHT21B
Flight time 0h 34m
Altitude 19000
Route ORIST L982 ROXOG
Aircraft A319/M-SDE3FGHIRWY/LB1

Departure

Time 2026-05-08 19:55
Airport Guernsey Airport (EGJB)

Arrival

Time 2026-05-08 20:29
Airport London Heathrow Airport (EGLL)
Time Latitude Longitude Altitude Speed Heading
2026-05-08 19:21 49.43260 -2.59688 345 ft 0 kts 178°
2026-05-08 19:45 49.43271 -2.59688 354 ft 4 kts 178°
2026-05-08 19:45 49.43298 -2.59689 349 ft 4 kts 180°
2026-05-08 19:46 49.43325 -2.59688 345 ft 4 kts 185°
2026-05-08 19:46 49.43350 -2.59681 345 ft 4 kts 210°
2026-05-08 19:46 49.43362 -2.59665 355 ft 0 kts 267°
2026-05-08 19:50 49.43362 -2.59668 355 ft 2 kts 268°
2026-05-08 19:50 49.43360 -2.59707 351 ft 6 kts 266°
2026-05-08 19:50 49.43347 -2.59799 347 ft 11 kts 264°
2026-05-08 19:50 49.43343 -2.59931 345 ft 14 kts 268°
2026-05-08 19:51 49.43339 -2.60094 351 ft 18 kts 267°
2026-05-08 19:51 49.43331 -2.60312 337 ft 23 kts 267°
2026-05-08 19:51 49.43326 -2.60586 331 ft 28 kts 272°
2026-05-08 19:51 49.43354 -2.60843 323 ft 23 kts 280°
2026-05-08 19:52 49.43360 -2.61119 318 ft 27 kts 268°
2026-05-08 19:52 49.43359 -2.61228 316 ft 0 kts 274°
2026-05-08 19:53 49.43360 -2.61236 315 ft 4 kts 277°
2026-05-08 19:53 49.43394 -2.61310 314 ft 13 kts 312°
2026-05-08 19:53 49.43472 -2.61335 312 ft 12 kts 62°
2026-05-08 19:54 49.43468 -2.61236 315 ft 0 kts 86°
2026-05-08 19:54 49.43471 -2.61127 318 ft 39 kts 88°
2026-05-08 19:54 49.43494 -2.60318 336 ft 111 kts 87°
2026-05-08 19:54 49.43536 -2.58903 732 ft 136 kts 86°
2026-05-08 19:55 49.43566 -2.57472 1579 ft 131 kts 90°
2026-05-08 19:55 49.43599 -2.56064 2145 ft 138 kts 89°
2026-05-08 19:55 49.43644 -2.54467 2504 ft 161 kts 90°
2026-05-08 19:55 49.43715 -2.52621 2886 ft 186 kts 84°
2026-05-08 19:56 49.44390 -2.50763 3242 ft 221 kts 45°
2026-05-08 19:56 49.45216 -2.49740 3594 ft 239 kts 41°
2026-05-08 19:56 49.46606 -2.48105 4265 ft 262 kts 40°
2026-05-08 19:56 49.48093 -2.46385 5248 ft 271 kts 39°
2026-05-08 19:57 49.49622 -2.44617 6317 ft 277 kts 39°
2026-05-08 19:57 49.51174 -2.42819 7323 ft 282 kts 39°
2026-05-08 19:57 49.53268 -2.40369 8661 ft 289 kts 39°
2026-05-08 19:57 49.54881 -2.38469 9673 ft 295 kts 39°
2026-05-08 19:58 49.55989 -2.37161 10270 ft 301 kts 38°
2026-05-08 19:58 49.57720 -2.35116 10665 ft 325 kts 38°
2026-05-08 19:58 49.59568 -2.32930 11168 ft 342 kts 38°
2026-05-08 19:58 49.61483 -2.30660 11951 ft 349 kts 38°
2026-05-08 19:59 49.63421 -2.28362 12784 ft 354 kts 37°
2026-05-08 19:59 49.65364 -2.26054 13611 ft 359 kts 37°
2026-05-08 19:59 49.67356 -2.23684 14361 ft 364 kts 37°
2026-05-08 19:59 49.69373 -2.21282 15102 ft 368 kts 37°
2026-05-08 20:00 49.71408 -2.18855 15830 ft 372 kts 37°
2026-05-08 20:00 49.73465 -2.16400 16575 ft 376 kts 37°
2026-05-08 20:00 49.75545 -2.13917 17293 ft 380 kts 37°
2026-05-08 20:00 49.77648 -2.11407 18026 ft 384 kts 37°
2026-05-08 20:01 49.79776 -2.08863 18679 ft 388 kts 37°
2026-05-08 20:01 49.81925 -2.06292 18967 ft 391 kts 37°
2026-05-08 20:01 49.84079 -2.03707 19051 ft 393 kts 37°
2026-05-08 20:01 49.86248 -2.01101 19066 ft 395 kts 37°
2026-05-08 20:02 49.88423 -1.98488 19067 ft 396 kts 37°
2026-05-08 20:02 49.90600 -1.95871 19069 ft 396 kts 37°
2026-05-08 20:02 49.92778 -1.93242 19068 ft 396 kts 37°
2026-05-08 20:02 49.94922 -1.90643 19069 ft 396 kts 37°
2026-05-08 20:03 49.97092 -1.88015 19067 ft 396 kts 37°
2026-05-08 20:03 49.99302 -1.85366 19071 ft 396 kts 35°
2026-05-08 20:03 50.01621 -1.83201 19075 ft 395 kts 26°
2026-05-08 20:03 50.04075 -1.81272 19075 ft 395 kts 26°
2026-05-08 20:04 50.06529 -1.79342 19084 ft 395 kts 25°
2026-05-08 20:04 50.08979 -1.77408 19086 ft 395 kts 26°
2026-05-08 20:04 50.11419 -1.75453 19086 ft 395 kts 28°
2026-05-08 20:04 50.13686 -1.73034 19084 ft 396 kts 38°
2026-05-08 20:05 50.15802 -1.70280 19086 ft 396 kts 39°
2026-05-08 20:05 50.17918 -1.67531 19086 ft 396 kts 39°
2026-05-08 20:05 50.20031 -1.64787 19084 ft 396 kts 39°
2026-05-08 20:05 50.22147 -1.62040 19085 ft 395 kts 39°
2026-05-08 20:06 50.24264 -1.59294 19092 ft 395 kts 38°
2026-05-08 20:06 50.26524 -1.56854 19088 ft 394 kts 28°
2026-05-08 20:06 50.29011 -1.55080 19093 ft 392 kts 18°
2026-05-08 20:06 50.31609 -1.53801 19094 ft 391 kts 15°
2026-05-08 20:07 50.34208 -1.52536 19094 ft 391 kts 15°
2026-05-08 20:07 50.36808 -1.51264 19091 ft 391 kts 16°
2026-05-08 20:07 50.39377 -1.50001 19093 ft 391 kts 16°
2026-05-08 20:07 50.41975 -1.48721 19091 ft 391 kts 16°
2026-05-08 20:08 50.44575 -1.47439 19093 ft 391 kts 16°
2026-05-08 20:08 50.47169 -1.46157 19091 ft 391 kts 16°
2026-05-08 20:08 50.49768 -1.44873 19090 ft 391 kts 16°
2026-05-08 20:08 50.52367 -1.43591 19097 ft 391 kts 17°
2026-05-08 20:09 50.54887 -1.41956 19096 ft 392 kts 26°
2026-05-08 20:09 50.57284 -1.39908 19096 ft 393 kts 28°
2026-05-08 20:09 50.59683 -1.37848 19093 ft 393 kts 28°
2026-05-08 20:09 50.62081 -1.35788 19100 ft 393 kts 28°
2026-05-08 20:10 50.64478 -1.33728 19099 ft 393 kts 28°
2026-05-08 20:10 50.66883 -1.31663 19101 ft 393 kts 28°
2026-05-08 20:10 50.69277 -1.29595 19105 ft 393 kts 28°
2026-05-08 20:10 50.71673 -1.27515 19102 ft 393 kts 28°
2026-05-08 20:11 50.74053 -1.25448 18932 ft 384 kts 28°
2026-05-08 20:11 50.76373 -1.23427 18691 ft 379 kts 29°
2026-05-08 20:11 50.78626 -1.21304 18425 ft 374 kts 31°
2026-05-08 20:11 50.80783 -1.19121 17903 ft 370 kts 33°
2026-05-08 20:12 50.82942 -1.16847 17391 ft 366 kts 34°
2026-05-08 20:12 50.85040 -1.14605 16872 ft 362 kts 34°
2026-05-08 20:12 50.87119 -1.12394 16380 ft 358 kts 33°
2026-05-08 20:12 50.89161 -1.10245 15888 ft 355 kts 33°
2026-05-08 20:13 50.91239 -1.08080 15380 ft 352 kts 33°
2026-05-08 20:13 50.93256 -1.05990 14898 ft 349 kts 33°
2026-05-08 20:13 50.95287 -1.03889 14397 ft 347 kts 33°
2026-05-08 20:13 50.97298 -1.01805 13906 ft 344 kts 33°
2026-05-08 20:14 50.99292 -0.99734 13375 ft 341 kts 33°
2026-05-08 20:14 51.01123 -0.97371 12907 ft 338 kts 45°
2026-05-08 20:14 51.02706 -0.94593 12532 ft 340 kts 49°
2026-05-08 20:14 51.04279 -0.91793 12135 ft 338 kts 49°
2026-05-08 20:15 51.05844 -0.89016 11742 ft 336 kts 49°
2026-05-08 20:15 51.07400 -0.86252 11350 ft 334 kts 49°
2026-05-08 20:15 51.08943 -0.83506 10961 ft 333 kts 49°
2026-05-08 20:15 51.10483 -0.80760 10571 ft 331 kts 49°
2026-05-08 20:16 51.11990 -0.78065 10366 ft 319 kts 49°
2026-05-08 20:16 51.13424 -0.75493 10134 ft 303 kts 49°
2026-05-08 20:16 51.14802 -0.73021 9736 ft 293 kts 49°
2026-05-08 20:16 51.16156 -0.70594 9602 ft 293 kts 49°
2026-05-08 20:17 51.17513 -0.68162 9469 ft 293 kts 49°
2026-05-08 20:17 51.18863 -0.65739 9238 ft 294 kts 49°
2026-05-08 20:17 51.20218 -0.63306 8872 ft 292 kts 49°
2026-05-08 20:17 51.21560 -0.60894 8511 ft 290 kts 49°
2026-05-08 20:18 51.22887 -0.58499 8167 ft 287 kts 49°
2026-05-08 20:18 51.24196 -0.56134 8105 ft 284 kts 49°
2026-05-08 20:18 51.25506 -0.53771 8109 ft 284 kts 49°
2026-05-08 20:18 51.26875 -0.51619 8095 ft 272 kts 33°
2026-05-08 20:19 51.28623 -0.50590 8106 ft 260 kts
2026-05-08 20:19 51.30350 -0.51035 8116 ft 251 kts 333°
2026-05-08 20:19 51.31655 -0.52751 8110 ft 247 kts 302°
2026-05-08 20:19 51.32449 -0.55176 8105 ft 247 kts 292°
2026-05-08 20:20 51.33126 -0.57683 7766 ft 244 kts 291°
2026-05-08 20:20 51.33782 -0.60191 7322 ft 246 kts 291°
2026-05-08 20:20 51.34439 -0.62739 6888 ft 251 kts 291°
2026-05-08 20:20 51.35104 -0.65348 6470 ft 255 kts 291°
2026-05-08 20:21 51.35775 -0.68003 6011 ft 260 kts 291°
2026-05-08 20:21 51.36458 -0.70725 5489 ft 266 kts 291°
2026-05-08 20:21 51.37142 -0.73471 4974 ft 264 kts 291°
2026-05-08 20:21 51.37815 -0.76172 4572 ft 257 kts 291°
2026-05-08 20:22 51.38470 -0.78780 4233 ft 247 kts 294°
2026-05-08 20:22 51.39488 -0.80875 3899 ft 236 kts 325°
2026-05-08 20:22 51.40974 -0.81761 3571 ft 225 kts 355°
2026-05-08 20:22 51.41992 -0.81878 3356 ft 220 kts 360°
2026-05-08 20:23 51.43984 -0.81958 3026 ft 206 kts
2026-05-08 20:23 51.45373 -0.81939 2980 ft 196 kts 11°
2026-05-08 20:23 51.46597 -0.81132 2996 ft 188 kts 40°
2026-05-08 20:23 51.47384 -0.79519 3071 ft 185 kts 68°
2026-05-08 20:24 51.47600 -0.77525 3022 ft 181 kts 92°
2026-05-08 20:24 51.47610 -0.75503 3006 ft 181 kts 91°
2026-05-08 20:24 51.47620 -0.73473 2894 ft 182 kts 91°
2026-05-08 20:24 51.47632 -0.71458 2798 ft 180 kts 91°
2026-05-08 20:25 51.47644 -0.69529 2643 ft 167 kts 91°
2026-05-08 20:25 51.47654 -0.67720 2449 ft 162 kts 91°
2026-05-08 20:25 51.47664 -0.65904 2238 ft 160 kts 91°
2026-05-08 20:25 51.47674 -0.64141 2041 ft 156 kts 91°
2026-05-08 20:26 51.47683 -0.62394 1823 ft 157 kts 91°
2026-05-08 20:26 51.47692 -0.60647 1611 ft 156 kts 91°
2026-05-08 20:26 51.47701 -0.58905 1396 ft 156 kts 91°
2026-05-08 20:26 51.47710 -0.57294 1188 ft 136 kts 91°
2026-05-08 20:27 51.47717 -0.55828 1015 ft 125 kts 91°
2026-05-08 20:27 51.47723 -0.54485 845 ft 121 kts 91°
2026-05-08 20:27 51.47728 -0.53141 675 ft 119 kts 90°
2026-05-08 20:27 51.47735 -0.51797 502 ft 119 kts 90°
2026-05-08 20:28 51.47743 -0.50476 349 ft 118 kts 91°
2026-05-08 20:28 51.47750 -0.49184 193 ft 117 kts 90°
2026-05-08 20:28 51.47751 -0.47894 88 ft 107 kts 90°
2026-05-08 20:28 51.47755 -0.46902 92 ft 69 kts 89°
2026-05-08 20:29 51.47756 -0.46257 90 ft 37 kts 89°
2026-05-08 20:29 51.47758 -0.45827 85 ft 47 kts 90°
2026-05-08 20:29 51.47760 -0.45422 86 ft 17 kts 89°